Tracking 17145 objects as of 23-May-2015
HD Live streaming from Space Station

OXP 1

Track OXP 1 now!
10-day predictions
OXP 1 is classified as:


NORAD ID: 22489
Int'l Code: 1993-009A
Perigee: 721.2 km
Apogee: 779.3 km
Inclination: 25.0 °
Period: 99.7 minutes
Semi major axis: 7121 km
RCS: 1.9581 m2 (large)
Launch date: February 9, 1993
Source: United States (US)
Your satellite tracking list
Your tracking list is empty





NASA's NSSDC Master Catalog

Two Line Element Set (TLE):
1 22489U 93009A   15142.51592204  .00000458  00000-0  77059-4 0  9996
2 22489 024.9658 290.6887 0040846 264.9290 149.3335 14.44667249175980

Source of the keplerian elements: AFSPC

N2YO: 311